Clearfield, PA

12:03 PM EDT on October 22, 2017 (GMT -0400)
Clearfield-Lawrence

Weather History for KFIG - February, 2013

Change the Weather History Date:

Monday, February 4, 2013

  Actual Average (KDUJ) Record (KDUJ)
Temperature  
Mean Temperature 26 °F -  
Max Temperature 32 °F 29 °F 55 °F (1991)
Min Temperature 19 °F 15 °F -9 °F (1996)
Degree Days  
Heating Degree Days 40    
Moisture  
Dew Point 16 °F    
Average Humidity 68    
Maximum Humidity 85    
Minimum Humidity 55    
Precipitation  
Precipitation 0.01 in - - ()
Sea Level Pressure  
Sea Level Pressure 29.89 in    
Wind  
Wind Speed 9 mph (WSW)    
Max Wind Speed 15 mph    
Max Gust Speed 23 mph    
Visibility 6 miles    
Events Rain , Snow    
Averages and records for this station are not official NWS values.
T = Trace of Precipitation, MM = Missing Value Source: NWS Daily Summary

Daily Weather History Graph

Daily Weather History Graph

Search for Another Location

Airport or City:

Trip Planner

Search our weather history database for the weather conditions in past years. The results will help you decide how hot, cold, wet, or windy it might be!

Date:

Astronomy

Feb. 04, 2013 Rise Set
Actual Time 7:21 AM EST 5:34 PM EST
Civil Twilight 6:52 AM EST 6:03 PM EST
Nautical Twilight 6:19 AM EST 6:36 PM EST
Astronomical Twilight 5:47 AM EST 7:08 PM EST
Moon 1:55 AM EST (2/4) 11:56 AM EST (2/4)
Length of Visible Light 11h 11m
Length of Day
10h 13m
Last Quarter, 37% of the Moon is Illuminated
Feb 4
Last Quarter
Feb 10
New
Feb 17
First Quarter
Feb 25
Full
Mar 4
Last Quarter

Hourly Weather History & Observations

Time (EST) Temp. Windchill Dew Point Humidity Pressure Visibility Wind Dir Wind Speed Gust Speed Precip Events Conditions
12:04 AM - - - N/A% 29.88 in 6.0 mi WSW 10.4 mph - 0.00 in   Unknown
12:54 AM - - - N/A% 29.88 in 6.0 mi WSW 13.8 mph 20.7 mph 0.00 in   Unknown
1:14 AM - - - N/A% 29.87 in 4.0 mi WSW 12.7 mph - 0.00 in   Unknown
1:54 AM - - - N/A% 29.89 in 10.0 mi WSW 9.2 mph 20.7 mph 0.00 in   Overcast
2:54 AM - - - N/A% 29.90 in 8.0 mi WSW 15.0 mph 20.7 mph 0.00 in   Unknown
3:54 AM - - - N/A% 29.91 in 5.0 mi WSW 8.1 mph - 0.00 in   Unknown
5:54 AM - - - N/A% 29.94 in 1.0 mi WSW 5.8 mph - 0.00 in   Unknown
5:59 AM - - - N/A% 29.94 in 3.0 mi Variable 6.9 mph - 0.00 in   Unknown
6:11 AM - - - N/A% 29.94 in 4.0 mi West 13.8 mph 20.7 mph 0.00 in   Unknown
6:21 AM - - - N/A% 29.95 in 3.0 mi WSW 8.1 mph 18.4 mph 0.00 in   Unknown
6:28 AM - - - N/A% 29.95 in 2.5 mi West 11.5 mph 17.3 mph 0.00 in   Unknown
6:39 AM - - - N/A% 29.95 in 5.0 mi WSW 12.7 mph 17.3 mph 0.00 in   Unknown
6:54 AM - - - N/A% 29.95 in 10.0 mi WSW 9.2 mph 21.9 mph 0.00 in Rain Light Rain
7:54 AM - - - N/A% 29.96 in 10.0 mi SW 6.9 mph - 0.00 in   Overcast
8:54 AM - - - N/A% 29.95 in 10.0 mi SW 9.2 mph - 0.00 in Rain Light Rain
9:30 AM - - - N/A% 29.94 in 9.0 mi West 12.7 mph 18.4 mph 0.00 in   Unknown
9:54 AM - - - N/A% 29.94 in 10.0 mi West 9.2 mph 19.6 mph 0.00 in Rain Light Rain
10:41 AM - - - N/A% 29.93 in 10.0 mi WSW 11.5 mph - 0.00 in   Scattered Clouds
10:54 AM 19.9 °F 6.7 °F 7.0 °F 57% 29.93 in 10.0 mi West 13.8 mph 23.0 mph 0.00 in   Mostly Cloudy
11:54 AM - - - N/A% 29.92 in - West 11.5 mph 18.4 mph N/A   Unknown
12:54 PM 21.0 °F - 9.0 °F 60% 29.89 in 10.0 mi North - - N/A   Overcast
1:54 PM 21.9 °F 13.4 °F 10.0 °F 60% 29.88 in 10.0 mi WSW 6.9 mph - N/A   Overcast
2:37 PM 21.2 °F 11.7 °F 12.2 °F 68% 29.88 in 3.0 mi WSW 8.1 mph - 0.00 in Snow Light Snow
2:54 PM 23.0 °F 15.8 °F 15.1 °F 72% 29.87 in 3.0 mi West 5.8 mph - 0.00 in Snow Light Snow
3:19 PM 23.0 °F 13.9 °F 15.8 °F 74% 29.87 in 3.0 mi West 8.1 mph - 0.00 in Snow Light Snow
3:54 PM 23.0 °F 14.7 °F 15.1 °F 72% 29.85 in 10.0 mi WSW 6.9 mph - 0.00 in   Overcast
5:40 PM 30.2 °F 26.7 °F 15.8 °F 55% 29.84 in 2.0 mi South 3.5 mph - 0.00 in Snow Light Snow
5:52 PM 30.2 °F - 17.6 °F 60% 29.83 in 5.0 mi Calm Calm - 0.00 in Snow Light Snow
5:54 PM 28.9 °F - 17.1 °F 61% 29.83 in 6.0 mi Calm Calm - 0.00 in Snow Light Snow
6:37 PM 32.0 °F - 17.6 °F 55% 29.84 in 2.5 mi Calm Calm - 0.00 in Snow Light Snow
6:49 PM 30.2 °F 26.7 °F 17.6 °F 60% 29.85 in 1.8 mi South 3.5 mph - 0.00 in Snow Light Snow
6:54 PM 30.9 °F - 18.0 °F 59% 29.85 in 2.0 mi Calm Calm - 0.00 in Snow Light Snow
7:01 PM 30.2 °F 26.7 °F 19.4 °F 64% 29.85 in 2.5 mi SSW 3.5 mph - 0.00 in Snow Light Snow
7:09 PM 30.2 °F - 19.4 °F 64% 29.84 in 4.0 mi Calm Calm - 0.00 in Snow Light Snow
7:54 PM 25.0 °F - 19.0 °F 78% 29.85 in 7.0 mi Calm Calm - 0.00 in   Overcast
8:54 PM 24.1 °F - 19.9 °F 84% 29.83 in 4.0 mi Calm Calm - 0.00 in   Overcast
9:05 PM 24.8 °F - 19.4 °F 80% 29.83 in 6.0 mi Calm Calm - N/A   Haze
9:54 PM 24.1 °F - 19.9 °F 84% 29.83 in 5.0 mi Calm Calm - 0.00 in   Overcast
10:54 PM 24.1 °F 19.7 °F 19.0 °F 81% 29.89 in 4.0 mi North 3.5 mph - 0.00 in Snow Light Snow
11:54 PM 23.0 °F 18.4 °F 19.0 °F 85% 29.82 in 5.0 mi NNE 3.5 mph - 0.01 in Snow Light Snow